Weather History for KMVE - December, 2013

Change the Weather History Date:

Thursday, December 5, 2013

  Actual Average Record
Temperature  
Mean Temperature 2 °F -  
Max Temperature 8 °F 32 °F 47 °F (1960)
Min Temperature -5 °F 13 °F -9 °F (1977)
Degree Days  
Heating Degree Days 64    
Moisture  
Dew Point -2 °F    
Average Humidity 80    
Maximum Humidity 92    
Minimum Humidity 67    
Precipitation  
Precipitation 0.00 in - - ()
Sea Level Pressure  
Sea Level Pressure 30.13 in    
Wind  
Wind Speed 14 mph (NW)    
Max Wind Speed 20 mph    
Max Gust Speed 28 mph    
Visibility 10 miles    
Events      
Averages and records for this station are not official NWS values.
T = Trace of Precipitation, MM = Missing Value Source: NWS Daily Summary

Daily Weather History Graph

Daily Weather History Graph

Search for Another Location

Airport or City:

Trip Planner

Search our weather history database for the weather conditions in past years. The results will help you decide how hot, cold, wet, or windy it might be!

Date:

Astronomy

Dec. 05, 2013 Rise Set
Actual Time 7:45 AM CST 4:41 PM CST
Civil Twilight 7:12 AM CST 5:15 PM CST
Nautical Twilight 6:35 AM CST 5:51 PM CST
Astronomical Twilight 5:59 AM CST 6:27 PM CST
Moon 10:02 AM CST (12/5) 8:07 PM CST (12/5)
Length of Visible Light 10h 02m
Length of Day
8h 56m
Waxing Crescent, 11% of the Moon is Illuminated
Dec 5
Waxing Crescent
Dec 9
First Quarter
Dec 17
Full
Dec 25
Last Quarter
Jan 1
New

Hourly Weather History & Observations

Time (CST) Temp. Windchill Dew Point Humidity Pressure Visibility Wind Dir Wind Speed Gust Speed Precip Events Conditions
12:14 AM 8.6 °F -10.5 °F 6.8 °F 92% 29.83 in 7.0 mi NNW 19.6 mph 25.3 mph N/A   Overcast
12:34 AM 8.6 °F -7.0 °F 5.0 °F 85% 29.85 in 10.0 mi NNW 12.7 mph 25.3 mph N/A   Overcast
12:54 AM 6.8 °F -10.7 °F 5.0 °F 92% 29.86 in 10.0 mi NNW 15.0 mph 21.9 mph N/A   Overcast
1:14 AM 6.8 °F -10.7 °F 3.2 °F 85% 29.86 in 10.0 mi NW 15.0 mph 24.2 mph N/A   Mostly Cloudy
1:34 AM 6.8 °F -11.3 °F 3.2 °F 85% 29.87 in 7.0 mi NNW 16.1 mph 27.6 mph N/A   Scattered Clouds
1:54 AM 6.8 °F -10.7 °F 3.2 °F 85% 29.88 in 10.0 mi NNW 15.0 mph 21.9 mph N/A   Scattered Clouds
2:14 AM 6.8 °F -10.0 °F 3.2 °F 85% 29.89 in 10.0 mi NNW 13.8 mph 23.0 mph N/A   Scattered Clouds
2:34 AM 6.8 °F -11.8 °F 3.2 °F 85% 29.90 in 10.0 mi NNW 17.3 mph 23.0 mph N/A   Clear
2:54 AM 6.8 °F -10.7 °F 3.2 °F 85% 29.91 in 10.0 mi NNW 15.0 mph 26.5 mph N/A   Clear
3:14 AM 6.8 °F -12.4 °F 1.4 °F 79% 29.92 in 10.0 mi NNW 18.4 mph 26.5 mph N/A   Clear
3:34 AM 5.0 °F -10.8 °F 1.4 °F 85% 29.94 in 10.0 mi NW 11.5 mph 21.9 mph N/A   Clear
3:54 AM 5.0 °F -14.7 °F 1.4 °F 85% 29.94 in 7.0 mi NW 18.4 mph 27.6 mph N/A   Clear
4:14 AM 5.0 °F -13.6 °F 1.4 °F 85% 29.96 in 7.0 mi NW 16.1 mph 23.0 mph N/A   Clear
4:34 AM 3.2 °F -17.6 °F 1.4 °F 92% 29.97 in 7.0 mi NNW 19.6 mph 27.6 mph N/A   Clear
4:54 AM 3.2 °F -16.5 °F -0.4 °F 85% 29.98 in 10.0 mi NW 17.3 mph 23.0 mph N/A   Clear
5:14 AM 3.2 °F -16.5 °F -0.4 °F 85% 29.99 in 10.0 mi NW 17.3 mph 24.2 mph N/A   Clear
5:34 AM 3.2 °F -13.9 °F -0.4 °F 85% 30.00 in 10.0 mi NW 12.7 mph 21.9 mph N/A   Clear
5:54 AM 3.2 °F -15.9 °F -0.4 °F 85% 30.00 in 10.0 mi NW 16.1 mph 25.3 mph N/A   Clear
6:14 AM 3.2 °F -16.5 °F -0.4 °F 85% 30.01 in 10.0 mi NNW 17.3 mph 23.0 mph N/A   Clear
6:34 AM 1.4 °F -17.6 °F -2.2 °F 85% 30.02 in 10.0 mi NW 15.0 mph 20.7 mph N/A   Clear
6:54 AM 1.4 °F -15.3 °F -2.2 °F 85% 30.02 in 10.0 mi NW 11.5 mph - N/A   Clear
7:14 AM 1.4 °F -16.1 °F -2.2 °F 85% 30.04 in 10.0 mi NW 12.7 mph - N/A   Clear
7:34 AM 1.4 °F -16.1 °F -2.2 °F 85% 30.05 in 10.0 mi NW 12.7 mph - N/A   Scattered Clouds
7:54 AM 1.4 °F -15.3 °F -2.2 °F 85% 30.06 in 10.0 mi NNW 11.5 mph 21.9 mph N/A   Overcast
8:14 AM 1.4 °F -15.3 °F -2.2 °F 85% 30.07 in 10.0 mi NNW 11.5 mph 19.6 mph N/A   Scattered Clouds
8:34 AM 3.2 °F -14.6 °F -0.4 °F 85% 30.07 in 10.0 mi NW 13.8 mph 19.6 mph N/A   Clear
8:54 AM 3.2 °F -13.9 °F -0.4 °F 85% 30.08 in 10.0 mi NW 12.7 mph 20.7 mph N/A   Clear
9:14 AM 5.0 °F -12.3 °F -0.4 °F 78% 30.09 in 10.0 mi NW 13.8 mph 21.9 mph N/A   Clear
9:34 AM 5.0 °F -13.0 °F -0.4 °F 78% 30.11 in 10.0 mi NNW 15.0 mph 20.7 mph N/A   Clear
9:54 AM 6.8 °F -10.0 °F -0.4 °F 72% 30.13 in 10.0 mi NW 13.8 mph 21.9 mph N/A   Clear
10:14 AM 6.8 °F -9.3 °F 1.4 °F 79% 30.13 in 10.0 mi NW 12.7 mph 20.7 mph N/A   Clear
10:34 AM 6.8 °F -10.0 °F 1.4 °F 79% 30.14 in 7.0 mi NW 13.8 mph 24.2 mph N/A   Clear
10:54 AM 6.8 °F -12.9 °F 1.4 °F 79% 30.15 in 10.0 mi NNW 19.6 mph 26.5 mph N/A   Clear
11:14 AM 8.6 °F -7.7 °F 1.4 °F 73% 30.15 in 10.0 mi NW 13.8 mph 25.3 mph N/A   Clear
11:34 AM 8.6 °F -6.3 °F 1.4 °F 73% 30.15 in 7.0 mi NNW 11.5 mph 27.6 mph N/A   Clear
11:54 AM 8.6 °F -8.3 °F 1.4 °F 73% 30.16 in 10.0 mi NW 15.0 mph 21.9 mph N/A   Clear
12:14 PM 8.6 °F -9.5 °F 1.4 °F 73% 30.15 in 7.0 mi NNW 17.3 mph 25.3 mph N/A   Clear
12:34 PM 8.6 °F -9.5 °F 1.4 °F 73% 30.16 in 7.0 mi NNW 17.3 mph 25.3 mph N/A   Scattered Clouds
12:54 PM 8.6 °F -10.0 °F 1.4 °F 73% 30.16 in 7.0 mi NW 18.4 mph 26.5 mph N/A   Clear
1:14 PM 8.6 °F -8.9 °F 1.4 °F 73% 30.16 in 10.0 mi NNW 16.1 mph 26.5 mph N/A   Clear
1:34 PM 8.6 °F -8.9 °F 1.4 °F 73% 30.16 in 10.0 mi NNW 16.1 mph 21.9 mph N/A   Clear
1:54 PM 8.6 °F -7.7 °F 1.4 °F 73% 30.16 in 10.0 mi NNW 13.8 mph 18.4 mph N/A   Clear
2:14 PM 8.6 °F -7.7 °F 1.4 °F 73% 30.16 in 10.0 mi NW 13.8 mph 21.9 mph N/A   Clear
2:34 PM 8.6 °F -5.5 °F 1.4 °F 73% 30.17 in 10.0 mi NW 10.4 mph - N/A   Clear
2:54 PM 8.6 °F -10.0 °F -0.4 °F 67% 30.17 in 10.0 mi NW 18.4 mph 25.3 mph N/A   Clear
3:14 PM 8.6 °F -9.5 °F -0.4 °F 67% 30.18 in 10.0 mi NW 17.3 mph 23.0 mph N/A   Clear
3:34 PM 6.8 °F -8.6 °F -0.4 °F 72% 30.19 in 10.0 mi NW 11.5 mph 23.0 mph N/A   Clear
3:54 PM 6.8 °F -9.3 °F -0.4 °F 72% 30.20 in 10.0 mi NW 12.7 mph 18.4 mph N/A   Clear
4:14 PM 6.8 °F -7.8 °F -2.2 °F 67% 30.20 in 10.0 mi NW 10.4 mph 17.3 mph N/A   Clear
4:34 PM 3.2 °F -10.3 °F -2.2 °F 78% 30.21 in 10.0 mi NNW 8.1 mph - N/A   Clear
4:54 PM 1.4 °F -12.5 °F -4.0 °F 78% 30.21 in 10.0 mi NW 8.1 mph 17.3 mph N/A   Clear
5:14 PM 1.4 °F -16.1 °F -4.0 °F 78% 30.22 in 10.0 mi NW 12.7 mph - N/A   Clear
5:34 PM 1.4 °F -14.5 °F -4.0 °F 78% 30.23 in 10.0 mi NNW 10.4 mph - N/A   Scattered Clouds
5:54 PM 1.4 °F -12.5 °F -5.8 °F 72% 30.24 in 10.0 mi NW 8.1 mph - N/A   Scattered Clouds
6:14 PM -0.4 °F -16.7 °F -5.8 °F 78% 30.25 in 10.0 mi NW 10.4 mph - N/A   Scattered Clouds
6:34 PM -0.4 °F -14.7 °F -5.8 °F 78% 30.26 in 10.0 mi WNW 8.1 mph - N/A   Scattered Clouds
6:54 PM -0.4 °F -15.7 °F -5.8 °F 78% 30.27 in 10.0 mi NW 9.2 mph - N/A   Scattered Clouds
7:14 PM -0.4 °F -18.4 °F -5.8 °F 78% 30.28 in 10.0 mi NW 12.7 mph 16.1 mph N/A   Clear
7:34 PM -0.4 °F -16.7 °F -7.6 °F 72% 30.29 in 10.0 mi WNW 10.4 mph 16.1 mph N/A   Clear
7:54 PM -2.2 °F -16.8 °F -7.6 °F 78% 30.30 in 10.0 mi WNW 8.1 mph - N/A   Clear
8:14 PM -2.2 °F -16.8 °F -7.6 °F 78% 30.31 in 10.0 mi WNW 8.1 mph - N/A   Clear
8:34 PM -2.2 °F -18.0 °F -7.6 °F 78% 30.32 in 10.0 mi WNW 9.2 mph - N/A   Clear
8:54 PM -2.2 °F -16.8 °F -7.6 °F 78% 30.32 in 10.0 mi NW 8.1 mph - N/A   Clear
9:13 PM -2.2 °F -18.0 °F -7.6 °F 78% 30.32 in 10.0 mi NW 9.2 mph - N/A   Clear
9:34 PM -4.0 °F -20.2 °F -7.6 °F 85% 30.32 in 10.0 mi NW 9.2 mph - N/A   Clear
9:54 PM -4.0 °F -20.2 °F -7.6 °F 85% 30.33 in 10.0 mi NW 9.2 mph - N/A   Clear
10:13 PM -4.0 °F -20.2 °F -7.6 °F 85% 30.34 in 10.0 mi NW 9.2 mph - N/A   Clear
10:34 PM -4.0 °F -20.2 °F -9.4 °F 78% 30.34 in 10.0 mi WNW 9.2 mph - N/A   Clear
10:54 PM -5.8 °F -22.4 °F -9.4 °F 84% 30.34 in 10.0 mi WNW 9.2 mph - N/A   Clear
11:14 PM -5.8 °F -23.4 °F -9.4 °F 84% 30.35 in 10.0 mi NW 10.4 mph - N/A   Clear
11:34 PM -5.8 °F -21.2 °F -9.4 °F 84% 30.35 in 10.0 mi NNW 8.1 mph - N/A   Clear
11:54 PM -5.8 °F -22.4 °F -9.4 °F 84% 30.35 in 10.0 mi NW 9.2 mph - N/A   Clear